Terminal Aerodrome Forecast
Issued by NWS

Home | Current Version | Previous Version | Graphics & Text | Print | Product List | Glossary On
Versions: 1 2 3 4 5 6 7 8 9 10 11 12 13 14 15 16 17 18 19 20 21 22
948
FTUS43 KLOT 201458 AAA
TAFORD
TAF AMD
KORD 201458Z 2015/2118 24015G25KT P6SM VCSH BKN035 BKN070
     FM201700 26018G28KT P6SM SCT025 BKN035
     FM210400 29011KT P6SM BKN050
     FM210900 31010KT P6SM BKN035=

USA.gov is the U.S. government's official web portal to all federal, state and local government web resources and services.